Retour au catalogue

STARLINK-11329

ActifCommunicationsVLEO
NORAD 61881·PAYLOAD·🇺🇸 United States

Lancé Nov 9, 2024 depuis Vandenberg Space Force Base

Loading…

Prochains Passages (prochaines 24 heures)

TLE

FraisSource: CelesTrak SupGP

Époque: Sep 14, 2026, 21:40 UTC

1 61881C 24204H   26257.90326389 -.00047386  00000+0 -39023-3 0  2574
2 61881  53.1565 143.5088 0001069  94.0335 234.9388 15.69739725    12

Suivez STARLINK-11329 en temps réel avec AllMySat

Download on the App Store